Location: Praha
(50.0833°N, 14.4667°E)
Time: 09:14:57
(UTC+02:00)

ISS - Visible Passes

Search period start: 23 September 2017 00:00
Search period end: 03 October 2017 00:00
Orbit: 401 x 407 km, 51.6° (Epoch: 23 September)

Date Brightness Start Highest point End Pass type
(mag) Time Alt. Az. Time Alt. Az. Time Alt. Az.
26 Sep -2.4 20:27:48 10° SSW 20:29:49 23° S 20:29:49 23° S visible
27 Sep -2.0 19:36:14 10° S 19:38:25 17° SE 19:39:58 13° ESE visible
27 Sep -1.9 21:11:10 10° WSW 21:12:38 24° SW 21:12:38 24° SW visible
28 Sep -3.5 20:18:57 10° SW 20:22:07 46° SSE 20:22:37 41° ESE visible
28 Sep -0.4 21:55:15 10° W 21:55:16 10° W 21:55:16 10° W visible
29 Sep -2.8 19:26:55 10° SSW 19:29:49 30° SSE 19:32:28 12° E visible
29 Sep -2.7 21:02:49 10° WSW 21:05:07 42° W 21:05:07 42° W visible
30 Sep -3.9 20:10:25 10° WSW 20:13:41 76° SSE 20:14:51 36° E visible
30 Sep -0.7 21:46:58 10° W 21:47:30 14° W 21:47:30 14° W visible
01 Oct -3.5 19:18:06 10° SW 19:21:17 52° SSE 19:24:30 10° ENE visible
01 Oct -3.0 20:54:30 10° W 20:57:10 52° WNW 20:57:10 52° WNW visible
02 Oct -3.8 20:02:00 10° W 20:05:17 77° N 20:06:45 30° ENE visible
02 Oct -0.8 21:38:38 10° WNW 21:39:24 16° WNW 21:39:24 16° WNW visible
